Time,TemperatureF,DewpointF,PressureIn,WindDirection,WindDirectionDegrees,WindSpeedMPH,WindSpeedGustMPH,Humidity,HourlyPrecipIn,Conditions,Clouds,dailyrainin,SolarRadiationWatts/m^2,SoftwareType,DateUTC
2013-01-17 00:12:00,20.0,4.0,-100.00,NW,317,6.0,15.0,50,0.00,,,0.00,0.000000,,2013-01-17 06:12:00,
2013-01-17 00:22:00,20.0,4.0,-100.00,NW,317,6.0,15.0,50,0.00,,,0.00,0.000000,,2013-01-17 06:22:00,
2013-01-17 00:32:00,20.0,4.0,-100.00,NW,317,6.0,15.0,50,0.00,,,0.00,0.000000,,2013-01-17 06:32:00,
2013-01-17 00:42:00,20.0,4.0,-100.00,NW,317,6.0,15.0,50,0.00,,,0.00,0.000000,,2013-01-17 06:42:00,
2013-01-17 01:12:00,18.0,2.0,-100.00,NW,320,8.0,14.0,49,0.00,,,0.00,0.000000,,2013-01-17 07:12:00,
2013-01-17 01:22:00,18.0,2.0,-100.00,NW,320,8.0,14.0,49,0.00,,,0.00,0.000000,,2013-01-17 07:22:00,
2013-01-17 01:32:00,18.0,2.0,-100.00,NW,320,8.0,14.0,49,0.00,,,0.00,0.000000,,2013-01-17 07:32:00,
2013-01-17 01:42:00,18.0,2.0,-100.00,NW,320,8.0,14.0,49,0.00,,,0.00,0.000000,,2013-01-17 07:42:00,
2013-01-17 02:12:00,16.0,1.0,-100.00,NW,311,8.0,13.0,51,0.00,,,0.00,0.000000,,2013-01-17 08:12:00,
2013-01-17 02:22:00,16.0,1.0,-100.00,NW,311,8.0,13.0,51,0.00,,,0.00,0.000000,,2013-01-17 08:22:00,
2013-01-17 02:32:00,16.0,1.0,-100.00,NW,311,8.0,13.0,51,0.00,,,0.00,0.000000,,2013-01-17 08:32:00,
2013-01-17 02:43:00,16.0,1.0,-100.00,NW,311,8.0,13.0,51,0.00,,,0.00,0.000000,,2013-01-17 08:43:00,
2013-01-17 03:12:00,14.0,2.0,-100.00,WNW,301,7.0,10.0,59,0.00,,,0.00,0.000000,,2013-01-17 09:12:00,
2013-01-17 03:22:00,14.0,2.0,-100.00,WNW,301,7.0,10.0,59,0.00,,,0.00,0.000000,,2013-01-17 09:22:00,
2013-01-17 03:32:00,14.0,2.0,-100.00,WNW,301,7.0,10.0,59,0.00,,,0.00,0.000000,,2013-01-17 09:32:00,
2013-01-17 03:42:00,14.0,2.0,-100.00,WNW,301,7.0,10.0,59,0.00,,,0.00,0.000000,,2013-01-17 09:42:00,
2013-01-17 04:12:00,13.0,2.0,-100.00,West,273,5.0,10.0,60,0.00,,,0.00,0.000000,,2013-01-17 10:12:00,
2013-01-17 04:22:00,13.0,2.0,-100.00,West,273,5.0,10.0,60,0.00,,,0.00,0.000000,,2013-01-17 10:22:00,
2013-01-17 04:32:00,13.0,2.0,-100.00,West,273,5.0,10.0,60,0.00,,,0.00,0.000000,,2013-01-17 10:32:00,
2013-01-17 04:42:00,13.0,2.0,-100.00,West,273,5.0,10.0,60,0.00,,,0.00,0.000000,,2013-01-17 10:42:00,
2013-01-17 05:12:00,12.0,-1.0,-100.00,WNW,283,6.0,9.0,56,0.00,,,0.00,0.000000,,2013-01-17 11:12:00,
2013-01-17 05:22:00,12.0,-1.0,-100.00,WNW,283,6.0,9.0,56,0.00,,,0.00,0.000000,,2013-01-17 11:22:00,
2013-01-17 05:33:00,12.0,-1.0,-100.00,WNW,283,6.0,9.0,56,0.00,,,0.00,0.000000,,2013-01-17 11:33:00,
2013-01-17 05:42:00,12.0,-1.0,-100.00,WNW,283,6.0,9.0,56,0.00,,,0.00,0.000000,,2013-01-17 11:42:00,
2013-01-17 06:12:00,10.0,-1.0,-100.00,West,269,4.0,7.0,61,0.00,,,0.00,0.000000,,2013-01-17 12:12:00,
2013-01-17 06:23:00,10.0,-1.0,-100.00,West,269,4.0,7.0,61,0.00,,,0.00,0.000000,,2013-01-17 12:23:00,
2013-01-17 06:33:00,10.0,-1.0,-100.00,West,269,4.0,7.0,61,0.00,,,0.00,0.000000,,2013-01-17 12:33:00,
2013-01-17 06:42:00,10.0,-1.0,-100.00,West,269,4.0,7.0,61,0.00,,,0.00,0.000000,,2013-01-17 12:42:00,
2013-01-17 07:12:00,10.0,-2.0,-100.00,WNW,290,6.0,9.0,58,0.00,,,0.00,0.000000,,2013-01-17 13:12:00,
2013-01-17 07:22:00,10.0,-2.0,-100.00,WNW,290,6.0,9.0,58,0.00,,,0.00,0.000000,,2013-01-17 13:22:00,
2013-01-17 07:33:00,10.0,-2.0,-100.00,WNW,290,6.0,9.0,58,0.00,,,0.00,0.000000,,2013-01-17 13:33:00,
2013-01-17 07:43:00,10.0,-2.0,-100.00,WNW,290,6.0,9.0,58,0.00,,,0.00,0.000000,,2013-01-17 13:43:00,
2013-01-17 08:12:00,9.0,-3.0,-100.00,WNW,303,5.0,8.0,56,0.00,,,-99.99,2.000000,,2013-01-17 14:12:00,
2013-01-17 08:23:00,9.0,-3.0,-100.00,WNW,303,5.0,8.0,56,0.00,,,-99.99,2.000000,,2013-01-17 14:23:00,
2013-01-17 08:33:00,9.0,-3.0,-100.00,WNW,303,5.0,8.0,56,0.00,,,-99.99,2.000000,,2013-01-17 14:33:00,
2013-01-17 08:42:00,9.0,-3.0,-100.00,WNW,303,5.0,8.0,56,0.00,,,-99.99,2.000000,,2013-01-17 14:42:00,
2013-01-17 09:12:00,11.0,-4.0,-100.00,WNW,300,6.0,10.0,51,0.00,,,0.00,33.000000,,2013-01-17 15:12:00,
2013-01-17 09:23:00,11.0,-4.0,-100.00,WNW,300,6.0,10.0,51,0.00,,,0.00,33.000000,,2013-01-17 15:23:00,
2013-01-17 09:33:00,11.0,-4.0,-100.00,WNW,300,6.0,10.0,51,0.00,,,0.00,33.000000,,2013-01-17 15:33:00,
2013-01-17 09:43:00,11.0,-4.0,-100.00,WNW,300,6.0,10.0,51,0.00,,,0.00,33.000000,,2013-01-17 15:43:00,
2013-01-17 10:12:00,15.0,-4.0,-100.00,NW,304,11.0,17.0,42,0.00,,,0.00,209.000000,,2013-01-17 16:12:00,
2013-01-17 10:23:00,15.0,-4.0,-100.00,NW,304,11.0,17.0,42,0.00,,,0.00,209.000000,,2013-01-17 16:23:00,
2013-01-17 10:33:00,15.0,-4.0,-100.00,NW,304,11.0,17.0,42,0.00,,,0.00,209.000000,,2013-01-17 16:33:00,
2013-01-17 10:43:00,15.0,-4.0,-100.00,NW,304,11.0,17.0,42,0.00,,,0.00,209.000000,,2013-01-17 16:43:00,
2013-01-17 11:13:00,17.0,-4.0,-100.00,WNW,296,9.0,16.0,38,0.00,,,0.00,333.000000,,2013-01-17 17:13:00,
2013-01-17 11:23:00,17.0,-4.0,-100.00,WNW,296,9.0,16.0,38,0.00,,,0.00,333.000000,,2013-01-17 17:23:00,
2013-01-17 11:33:00,17.0,-4.0,-100.00,WNW,296,9.0,16.0,38,0.00,,,0.00,333.000000,,2013-01-17 17:33:00,
2013-01-17 11:43:00,17.0,-4.0,-100.00,WNW,296,9.0,16.0,38,0.00,,,0.00,333.000000,,2013-01-17 17:43:00,
2013-01-17 12:03:00,18.0,-2.0,-100.00,West,263,9.0,17.0,41,0.00,,,0.00,296.000000,,2013-01-17 18:03:00,
2013-01-17 12:12:00,18.0,-2.0,-100.00,West,263,9.0,17.0,41,0.00,,,0.00,296.000000,,2013-01-17 18:12:00,
2013-01-17 12:22:00,18.0,-2.0,-100.00,West,263,9.0,17.0,41,0.00,,,0.00,296.000000,,2013-01-17 18:22:00,
2013-01-17 12:33:00,18.0,-2.0,-100.00,West,263,9.0,17.0,41,0.00,,,0.00,296.000000,,2013-01-17 18:33:00,
2013-01-17 12:43:00,18.0,-2.0,-100.00,West,263,9.0,17.0,41,0.00,,,0.00,296.000000,,2013-01-17 18:43:00,
2013-01-17 13:12:00,20.0,0.0,-100.00,WNW,282,10.0,18.0,40,0.00,,,0.00,267.000000,,2013-01-17 19:12:00,
2013-01-17 13:23:00,20.0,0.0,-100.00,WNW,282,10.0,18.0,40,0.00,,,0.00,267.000000,,2013-01-17 19:23:00,
2013-01-17 13:33:00,20.0,0.0,-100.00,WNW,282,10.0,18.0,40,0.00,,,0.00,267.000000,,2013-01-17 19:33:00,
2013-01-17 13:43:00,20.0,0.0,-100.00,WNW,282,10.0,18.0,40,0.00,,,0.00,267.000000,,2013-01-17 19:43:00,
2013-01-17 14:12:00,22.0,0.0,-100.00,West,264,12.0,20.0,38,0.00,,,0.00,347.000000,,2013-01-17 20:12:00,
2013-01-17 14:23:00,22.0,0.0,-100.00,West,264,12.0,20.0,38,0.00,,,0.00,347.000000,,2013-01-17 20:23:00,
2013-01-17 14:33:00,22.0,0.0,-100.00,West,264,12.0,20.0,38,0.00,,,0.00,347.000000,,2013-01-17 20:33:00,
2013-01-17 14:43:00,22.0,0.0,-100.00,West,264,12.0,20.0,38,0.00,,,0.00,347.000000,,2013-01-17 20:43:00,
2013-01-17 15:13:00,22.0,3.0,-100.00,West,268,12.0,25.0,43,0.00,,,0.00,285.000000,,2013-01-17 21:13:00,
2013-01-17 15:23:00,22.0,3.0,-100.00,West,268,12.0,25.0,43,0.00,,,0.00,285.000000,,2013-01-17 21:23:00,
2013-01-17 15:33:00,22.0,3.0,-100.00,West,268,12.0,25.0,43,0.00,,,0.00,285.000000,,2013-01-17 21:33:00,
2013-01-17 15:43:00,22.0,3.0,-100.00,West,268,12.0,25.0,43,0.00,,,0.00,285.000000,,2013-01-17 21:43:00,
2013-01-17 16:12:00,21.0,5.0,-100.00,West,280,9.0,17.0,50,0.00,,,0.00,101.000000,,2013-01-17 22:12:00,
2013-01-17 16:23:00,21.0,5.0,-100.00,West,280,9.0,17.0,50,0.00,,,0.00,101.000000,,2013-01-17 22:23:00,
2013-01-17 16:33:00,21.0,5.0,-100.00,West,280,9.0,17.0,50,0.00,,,0.00,101.000000,,2013-01-17 22:33:00,
2013-01-17 16:43:00,21.0,5.0,-100.00,West,280,9.0,17.0,50,0.00,,,0.00,101.000000,,2013-01-17 22:43:00,
2013-01-17 17:12:00,20.0,7.0,-100.00,WNW,284,6.0,20.0,56,0.00,,,0.00,31.000000,,2013-01-17 23:12:00,
2013-01-17 17:22:00,20.0,7.0,-100.00,WNW,284,6.0,20.0,56,0.00,,,0.00,31.000000,,2013-01-17 23:22:00,
2013-01-17 17:33:00,20.0,7.0,-100.00,WNW,284,6.0,20.0,56,0.00,,,0.00,31.000000,,2013-01-17 23:33:00,
2013-01-17 17:43:00,20.0,7.0,-100.00,WNW,284,6.0,20.0,56,0.00,,,0.00,31.000000,,2013-01-17 23:43:00,
2013-01-17 18:12:00,17.0,7.0,-100.00,WNW,294,5.0,10.0,64,0.00,,,0.00,1.000000,,2013-01-18 00:12:00,
2013-01-17 18:23:00,17.0,7.0,-100.00,WNW,294,5.0,10.0,64,0.00,,,0.00,1.000000,,2013-01-18 00:23:00,
2013-01-17 18:32:00,17.0,7.0,-100.00,WNW,294,5.0,10.0,64,0.00,,,0.00,1.000000,,2013-01-18 00:32:00,
2013-01-17 18:42:00,17.0,7.0,-100.00,WNW,294,5.0,10.0,64,0.00,,,0.00,1.000000,,2013-01-18 00:42:00,
2013-01-17 19:12:00,15.0,7.0,-100.00,WNW,298,4.0,8.0,71,0.00,,,0.00,0.000000,,2013-01-18 01:12:00,
2013-01-17 19:23:00,15.0,7.0,-100.00,WNW,298,4.0,8.0,71,0.00,,,0.00,0.000000,,2013-01-18 01:23:00,
2013-01-17 19:33:00,15.0,7.0,-100.00,WNW,298,4.0,8.0,71,0.00,,,0.00,0.000000,,2013-01-18 01:33:00,
2013-01-17 19:43:00,15.0,7.0,-100.00,WNW,298,4.0,8.0,71,0.00,,,0.00,0.000000,,2013-01-18 01:43:00,
2013-01-17 20:12:00,11.0,5.0,-100.00,WNW,300,4.0,6.0,77,0.00,,,0.00,0.000000,,2013-01-18 02:12:00,
2013-01-17 20:22:00,11.0,5.0,-100.00,WNW,300,4.0,6.0,77,0.00,,,0.00,0.000000,,2013-01-18 02:22:00,
2013-01-17 20:32:00,11.0,5.0,-100.00,WNW,300,4.0,6.0,77,0.00,,,0.00,0.000000,,2013-01-18 02:32:00,
2013-01-17 20:42:00,11.0,5.0,-100.00,WNW,300,4.0,6.0,77,0.00,,,0.00,0.000000,,2013-01-18 02:42:00,
2013-01-17 21:12:00,11.0,5.0,-100.00,NW,306,4.0,8.0,77,0.00,,,0.00,0.000000,,2013-01-18 03:12:00,
2013-01-17 21:23:00,11.0,5.0,-100.00,NW,306,4.0,8.0,77,0.00,,,0.00,0.000000,,2013-01-18 03:23:00,
2013-01-17 21:33:00,11.0,5.0,-100.00,NW,306,4.0,8.0,77,0.00,,,0.00,0.000000,,2013-01-18 03:33:00,
2013-01-17 21:42:00,11.0,5.0,-100.00,NW,306,4.0,8.0,77,0.00,,,0.00,0.000000,,2013-01-18 03:42:00,
2013-01-17 22:12:00,8.0,3.0,-100.00,North,6,2.0,4.0,81,0.00,,,0.00,0.000000,,2013-01-18 04:12:00,
2013-01-17 22:22:00,8.0,3.0,-100.00,North,6,2.0,4.0,81,0.00,,,0.00,0.000000,,2013-01-18 04:22:00,
2013-01-17 22:33:00,8.0,3.0,-100.00,North,6,2.0,4.0,81,0.00,,,0.00,0.000000,,2013-01-18 04:33:00,
2013-01-17 22:42:00,8.0,3.0,-100.00,North,6,2.0,4.0,81,0.00,,,0.00,0.000000,,2013-01-18 04:42:00,
2013-01-17 23:12:00,7.0,3.0,-100.00,SW,229,3.0,3.0,83,0.00,,,0.00,0.000000,,2013-01-18 05:12:00,
2013-01-17 23:22:00,7.0,3.0,-100.00,SW,229,3.0,3.0,83,0.00,,,0.00,0.000000,,2013-01-18 05:22:00,
2013-01-17 23:33:00,7.0,3.0,-100.00,SW,229,3.0,3.0,83,0.00,,,0.00,0.000000,,2013-01-18 05:33:00,
2013-01-17 23:42:00,7.0,3.0,-100.00,SW,229,3.0,3.0,83,0.00,,,0.00,0.000000,,2013-01-18 05:42:00,